Location: Unspecified
(0.0000°N, 0.0000°E)
Time: 01:17:37
(UTC+01:00)

Cosmos 1908 Rocket - Visible Passes

Search period start: 25 February 2017 00:00
Search period end: 07 March 2017 00:00
Orbit: 607 x 632 km, 82.5° (Epoch: 24 February)

Date Brightness Start Highest point End Pass type
(mag) Time Alt. Az. Time Alt. Az. Time Alt. Az.
25 Feb 3.4 05:59:31 10° N 06:03:58 75° W 06:08:24 10° S visible
26 Feb 4.3 06:17:27 10° NNW 06:21:24 31° W 06:25:20 10° SSW visible
27 Feb 5.9 04:58:49 15° NE 05:01:14 22° E 05:04:41 10° SE visible
27 Feb 5.2 06:36:27 10° WNW 06:38:49 14° W 06:41:11 10° SW visible
28 Feb 4.4 05:18:14 48° ENE 05:18:40 50° E 05:22:58 10° SSE visible
01 Mar 4.1 05:37:22 44° SSW 05:37:22 44° SSW 05:40:29 10° S visible
02 Mar 5.5 05:56:16 16° SW 05:56:16 16° SW 05:57:21 10° SSW visible
